EZY54AH EGKK-EGJJ

Flight info

Callsign EZY54AH
Flight time 0h 38m
Altitude 27000
Route IMVUR N63 LELNA
Aircraft A319/M-SDE3FGHIRWY/LB1

Departure

Time 2026-05-06 17:05
Airport London Gatwick Airport (EGKK)

Arrival

Time 2026-05-06 17:43
Airport Jersey Airport (EGJJ)
Time Latitude Longitude Altitude Speed Heading
2026-05-06 17:05 51.21062 -0.24789 11587 ft 289 kts 261°
2026-05-06 17:05 51.20679 -0.27944 12476 ft 292 kts 261°
2026-05-06 17:05 51.20299 -0.31143 13359 ft 295 kts 261°
2026-05-06 17:06 51.19922 -0.34380 14174 ft 299 kts 261°
2026-05-06 17:06 51.19523 -0.37648 14957 ft 302 kts 260°
2026-05-06 17:06 51.19099 -0.40946 15742 ft 305 kts 259°
2026-05-06 17:06 51.18662 -0.44269 16522 ft 308 kts 259°
2026-05-06 17:07 51.18216 -0.47617 17310 ft 311 kts 259°
2026-05-06 17:07 51.17764 -0.51006 18089 ft 314 kts 259°
2026-05-06 17:07 51.17172 -0.54384 18682 ft 323 kts 250°
2026-05-06 17:07 51.16293 -0.57802 18809 ft 344 kts 248°
2026-05-06 17:08 51.15332 -0.61415 19020 ft 361 kts 248°
2026-05-06 17:08 51.14331 -0.65132 19519 ft 368 kts 248°
2026-05-06 17:08 51.13328 -0.68838 20125 ft 372 kts 248°
2026-05-06 17:08 51.12299 -0.72645 20752 ft 375 kts 248°
2026-05-06 17:09 51.11268 -0.76474 21386 ft 378 kts 248°
2026-05-06 17:09 51.10264 -0.80215 21990 ft 381 kts 248°
2026-05-06 17:09 51.09219 -0.84117 22606 ft 384 kts 248°
2026-05-06 17:09 51.08166 -0.88042 23202 ft 388 kts 248°
2026-05-06 17:10 51.07099 -0.91992 23743 ft 391 kts 248°
2026-05-06 17:10 51.06017 -0.95984 24213 ft 393 kts 248°
2026-05-06 17:10 51.04932 -0.99986 24711 ft 396 kts 248°
2026-05-06 17:10 51.03841 -1.04022 25185 ft 398 kts 248°
2026-05-06 17:11 51.02743 -1.08074 25665 ft 401 kts 248°
2026-05-06 17:11 51.01636 -1.12153 26121 ft 403 kts 248°
2026-05-06 17:11 51.00523 -1.16256 26572 ft 406 kts 247°
2026-05-06 17:11 50.99408 -1.20338 26917 ft 409 kts 247°
2026-05-06 17:12 50.98282 -1.24458 26993 ft 402 kts 247°
2026-05-06 17:12 50.97142 -1.28461 27002 ft 396 kts 243°
2026-05-06 17:12 50.95637 -1.32102 27001 ft 395 kts 232°
2026-05-06 17:12 50.93725 -1.35227 27003 ft 396 kts 221°
2026-05-06 17:13 50.92231 -1.37003 27002 ft 397 kts 214°
2026-05-06 17:13 50.89801 -1.39110 27003 ft 399 kts 208°
2026-05-06 17:13 50.87320 -1.41086 27002 ft 399 kts 208°
2026-05-06 17:13 50.84840 -1.43053 26999 ft 399 kts 208°
2026-05-06 17:14 50.82387 -1.44998 26992 ft 400 kts 208°
2026-05-06 17:14 50.79904 -1.46970 26995 ft 399 kts 208°
2026-05-06 17:14 50.77417 -1.48946 26986 ft 399 kts 208°
2026-05-06 17:14 50.74933 -1.50917 26985 ft 399 kts 208°
2026-05-06 17:15 50.72452 -1.52881 26991 ft 399 kts 208°
2026-05-06 17:15 50.69970 -1.54846 26990 ft 399 kts 208°
2026-05-06 17:15 50.67487 -1.56810 26988 ft 399 kts 208°
2026-05-06 17:15 50.65006 -1.58771 26988 ft 399 kts 208°
2026-05-06 17:16 50.62524 -1.60731 26974 ft 399 kts 208°
2026-05-06 17:16 50.60042 -1.62689 26963 ft 399 kts 208°
2026-05-06 17:16 50.57553 -1.64648 26964 ft 400 kts 208°
2026-05-06 17:16 50.55063 -1.66603 26964 ft 400 kts 208°
2026-05-06 17:17 50.52574 -1.68553 26967 ft 400 kts 208°
2026-05-06 17:17 50.50080 -1.70506 26966 ft 400 kts 208°
2026-05-06 17:17 50.47590 -1.72459 26969 ft 400 kts 208°
2026-05-06 17:17 50.45099 -1.74415 26970 ft 400 kts 208°
2026-05-06 17:18 50.42633 -1.76377 26982 ft 389 kts 211°
2026-05-06 17:18 50.40607 -1.78893 26985 ft 369 kts 231°
2026-05-06 17:18 50.39322 -1.82230 26987 ft 351 kts 252°
2026-05-06 17:18 50.38932 -1.85941 26994 ft 344 kts 273°
2026-05-06 17:19 50.39366 -1.89611 26185 ft 350 kts 291°
2026-05-06 17:19 50.40705 -1.92911 25393 ft 371 kts 314°
2026-05-06 17:19 50.42837 -1.95286 25101 ft 384 kts 334°
2026-05-06 17:19 50.45412 -1.96368 24951 ft 380 kts 355°
2026-05-06 17:20 50.47967 -1.95965 24981 ft 362 kts 15°
2026-05-06 17:20 50.50178 -1.94205 24988 ft 357 kts 37°
2026-05-06 17:20 50.51822 -1.91312 24988 ft 356 kts 58°
2026-05-06 17:20 50.52747 -1.87786 24986 ft 343 kts 78°
2026-05-06 17:21 50.52866 -1.84126 24984 ft 334 kts 98°
2026-05-06 17:21 50.52189 -1.80674 24985 ft 330 kts 120°
2026-05-06 17:21 50.50810 -1.77818 24985 ft 327 kts 140°
2026-05-06 17:21 50.48923 -1.75887 24989 ft 324 kts 160°
2026-05-06 17:22 50.46752 -1.75047 24988 ft 320 kts 179°
2026-05-06 17:22 50.44556 -1.75356 24986 ft 316 kts 198°
2026-05-06 17:22 50.42539 -1.76666 24988 ft 314 kts 208°
2026-05-06 17:22 50.40576 -1.78195 24983 ft 315 kts 208°
2026-05-06 17:23 50.38610 -1.79726 24987 ft 316 kts 208°
2026-05-06 17:23 50.36665 -1.81232 24988 ft 316 kts 208°
2026-05-06 17:23 50.34695 -1.82756 24989 ft 316 kts 208°
2026-05-06 17:23 50.32720 -1.84279 24991 ft 316 kts 208°
2026-05-06 17:24 50.30749 -1.85796 24991 ft 316 kts 208°
2026-05-06 17:24 50.28777 -1.87315 24991 ft 316 kts 208°
2026-05-06 17:24 50.26808 -1.88832 24991 ft 316 kts 208°
2026-05-06 17:24 50.24835 -1.90345 24991 ft 316 kts 208°
2026-05-06 17:25 50.22862 -1.91854 24991 ft 316 kts 208°
2026-05-06 17:25 50.20891 -1.93365 24994 ft 316 kts 208°
2026-05-06 17:25 50.18922 -1.94878 24994 ft 316 kts 208°
2026-05-06 17:25 50.16898 -1.96433 24992 ft 335 kts 208°
2026-05-06 17:26 50.14734 -1.98093 24996 ft 357 kts 208°
2026-05-06 17:26 50.12441 -1.99849 24994 ft 377 kts 207°
2026-05-06 17:26 50.10045 -2.01676 24963 ft 389 kts 207°
2026-05-06 17:26 50.07601 -2.03534 24710 ft 390 kts 207°
2026-05-06 17:27 50.05180 -2.05377 24345 ft 386 kts 207°
2026-05-06 17:27 50.02774 -2.07212 23785 ft 384 kts 207°
2026-05-06 17:27 50.00394 -2.09026 23000 ft 379 kts 207°
2026-05-06 17:27 49.98064 -2.10801 22172 ft 375 kts 207°
2026-05-06 17:28 49.95741 -2.12570 21373 ft 371 kts 207°
2026-05-06 17:28 49.93435 -2.14327 20588 ft 366 kts 207°
2026-05-06 17:28 49.91161 -2.16061 19825 ft 362 kts 207°
2026-05-06 17:28 49.88897 -2.17712 19078 ft 358 kts 206°
2026-05-06 17:29 49.86638 -2.19292 18357 ft 354 kts 206°
2026-05-06 17:29 49.84405 -2.20850 17548 ft 350 kts 206°
2026-05-06 17:29 49.82193 -2.22396 16783 ft 347 kts 206°
2026-05-06 17:29 49.80002 -2.23932 16090 ft 344 kts 206°
2026-05-06 17:30 49.77803 -2.25346 15410 ft 342 kts 201°
2026-05-06 17:30 49.75575 -2.26582 14758 ft 339 kts 201°
2026-05-06 17:30 49.73391 -2.27778 14136 ft 336 kts 201°
2026-05-06 17:30 49.71197 -2.28974 13470 ft 333 kts 200°
2026-05-06 17:31 49.69021 -2.30157 12783 ft 330 kts 200°
2026-05-06 17:31 49.66868 -2.31325 12117 ft 326 kts 200°
2026-05-06 17:31 49.64741 -2.32474 11460 ft 323 kts 200°
2026-05-06 17:31 49.62631 -2.33606 10818 ft 319 kts 200°
2026-05-06 17:32 49.60541 -2.34718 10327 ft 314 kts 200°
2026-05-06 17:32 49.58535 -2.35775 10202 ft 296 kts 200°
2026-05-06 17:32 49.56620 -2.36776 9917 ft 286 kts 200°
2026-05-06 17:32 49.54752 -2.37748 9475 ft 279 kts 200°
2026-05-06 17:33 49.52935 -2.38694 9063 ft 272 kts 200°
2026-05-06 17:33 49.51158 -2.39624 8567 ft 268 kts 200°
2026-05-06 17:33 49.49390 -2.40556 8050 ft 265 kts 200°
2026-05-06 17:33 49.47699 -2.41446 7907 ft 249 kts 200°
2026-05-06 17:34 49.46085 -2.42292 7549 ft 242 kts 200°
2026-05-06 17:34 49.44498 -2.43127 7105 ft 240 kts 200°
2026-05-06 17:34 49.42927 -2.43955 6631 ft 238 kts 200°
2026-05-06 17:34 49.41368 -2.44779 6167 ft 236 kts 200°
2026-05-06 17:35 49.39844 -2.45585 5911 ft 224 kts 201°
2026-05-06 17:35 49.38422 -2.46334 5788 ft 209 kts 200°
2026-05-06 17:35 49.37089 -2.47039 5627 ft 197 kts 201°
2026-05-06 17:36 49.34557 -2.48380 4968 ft 193 kts 200°
2026-05-06 17:36 49.33296 -2.49071 4606 ft 192 kts 200°
2026-05-06 17:36 49.32022 -2.49775 4236 ft 192 kts 201°
2026-05-06 17:36 49.30786 -2.50464 3891 ft 191 kts 200°
2026-05-06 17:37 49.29540 -2.51160 3537 ft 190 kts 197°
2026-05-06 17:37 49.28242 -2.51553 3171 ft 190 kts 184°
2026-05-06 17:37 49.26936 -2.51585 3007 ft 188 kts 171°
2026-05-06 17:37 49.25655 -2.51111 3020 ft 190 kts 162°
2026-05-06 17:38 49.24423 -2.50414 2999 ft 189 kts 149°
2026-05-06 17:38 49.23309 -2.49360 3029 ft 187 kts 146°
2026-05-06 17:38 49.22208 -2.48272 3010 ft 188 kts 146°
2026-05-06 17:38 49.21112 -2.47186 2999 ft 188 kts 146°
2026-05-06 17:39 49.20031 -2.46071 2997 ft 187 kts 139°
2026-05-06 17:39 49.19230 -2.44529 3001 ft 185 kts 116°
2026-05-06 17:39 49.18904 -2.42725 3000 ft 171 kts 93°
2026-05-06 17:39 49.18985 -2.40937 2910 ft 167 kts 82°
2026-05-06 17:40 49.19135 -2.39192 2735 ft 164 kts 82°
2026-05-06 17:40 49.19283 -2.37464 2534 ft 167 kts 82°
2026-05-06 17:40 49.19436 -2.35678 2297 ft 169 kts 82°
2026-05-06 17:40 49.19582 -2.33955 2079 ft 154 kts 82°
2026-05-06 17:41 49.19712 -2.32421 1879 ft 137 kts 82°
2026-05-06 17:41 49.19830 -2.31024 1696 ft 130 kts 82°
2026-05-06 17:41 49.19944 -2.29671 1513 ft 126 kts 82°
2026-05-06 17:41 49.20057 -2.28336 1347 ft 127 kts 82°
2026-05-06 17:42 49.20169 -2.27010 1169 ft 126 kts 82°
2026-05-06 17:42 49.20278 -2.25702 976 ft 125 kts 82°
2026-05-06 17:42 49.20389 -2.24390 833 ft 124 kts 81°
2026-05-06 17:42 49.20500 -2.23079 636 ft 124 kts 81°
2026-05-06 17:43 49.20617 -2.21779 459 ft 125 kts 81°
2026-05-06 17:43 49.20723 -2.20454 326 ft 125 kts 81°
2026-05-06 17:43 49.20833 -2.19211 283 ft 103 kts 82°
2026-05-06 17:43 49.20884 -2.18484 280 ft 32 kts 95°
2026-05-06 17:44 49.20800 -2.18388 286 ft 0 kts 204°